Tracking 25744 objects as of 25-Jun-2022
HD Live streaming from Space Station
objects crossing your sky now

ATLAS CENTAUR DEB

Track ATLAS CENTAUR DEB now!


NORAD ID: 25253
Int'l Code: 1978-068C
Perigee: 848.1 km
Apogee: 35,608.2 km
Inclination: 21.4 °
Period: 639.9 minutes
Semi major axis: 24599 km
RCS: 0.1092 m2 (medium)
Launch date: June 29, 1978
Source: United States (US)
Launch site: AIR FORCE EASTERN TEST RANGE (AFETR)

Note: This is SATELLITE DEBRIS
aabbcc
Your satellite tracking list
Your tracking list is empty




NASA's NSSDC Master Catalog

Two Line Element Set (TLE):
1 25253U 78068C   22173.26494590  .00000030  00000-0  28965-2 0  9995
2 25253  21.3753 162.3066 7065316 328.8580   8.4989  2.25021272205183
Source of the keplerian elements: AFSPC